This demonstration page uses our WeatherBlox Daily Observations layout. Learn more.

Hourly Observations for September 5, 2019

Temp ( °F °C ) Dew Point ( °F °C ) Humidity (%) Winds ( mph kmh ) Pressure ( in mb ) Visibility ( mi km ) Precip ( " mm )
12:15 am 00:15 Clear 65 18.6 64 17.5 93 93 SSE 8 13 29.99 1016 10 16.0934 0 0
12:35 am 00:35 Clear 66 19.1 65 18.1 94 94 SSE 9 15 29.98 1015 10 16.0934 0 0
12:55 am 00:55 Clear 67 19.3 65 18.5 95 95 SSE 10 17 29.98 1015 10 16.0934 0 0
1:15 am 01:15 Clear 67 19.5 66 18.7 95 95 SSE 9 15 29.98 1015 10 16.0934 0 0
1:35 am 01:35 Clear 67 19.6 66 19 96 96 SSE 7 11 29.98 1015 10 16.0934 0 0
1:55 am 01:55 Clear 67 19.6 66 19 96 96 S 7 11 29.97 1015 10 16.0934 0 0
2:15 am 02:15 Clear 68 19.8 67 19.2 96 96 SSE 8 13 29.97 1015 10 16.0934 0 0
2:35 am 02:35 Clear 68 19.8 66 19.1 96 96 S 8 13 29.96 1015 10 16.0934 0 0
2:55 am 02:55 Clear 68 20 66 19.1 95 95 S 8 13 29.96 1014 10 16.0934 0 0
3:15 am 03:15 Clear 68 20 67 19.2 95 95 S 10 17 29.96 1014 10 16.0934 0 0
3:35 am 03:35 Clear 68 20 66 19 94 94 S 9 15 29.94 1014 10 16.0934 0 0
3:55 am 03:55 Clear 68 20 66 18.8 93 93 S 8 13 29.94 1014 10 16.0934 0 0
4:15 am 04:15 Clear 68 19.8 65 18.6 93 93 S 9 15 29.94 1014 10 16.0934 0 0
4:35 am 04:35 Clear 67 19.6 65 18.5 93 93 S 9 15 29.93 1014 10 16.0934 0 0
4:55 am 04:55 Clear 67 19.6 65 18.3 92 92 S 10 17 29.93 1014 10 16.0934 0 0
5:15 am 05:15 Clear 67 19.5 65 18.1 92 92 S 9 15 29.92 1013 10 16.0934 0 0
5:35 am 05:35 Clear 68 19.9 64 17.9 88 88 S 9 15 29.92 1013 10 16.0934 0 0
5:55 am 05:55 Clear 68 19.8 64 17.6 87 87 S 12 19 29.92 1013 10 16.0934 0 0
6:15 am 06:15 Clear 67 19.6 63 17.4 87 87 SSW 12 19 29.92 1013 10 16.0934 0 0
6:35 am 06:35 Clear 67 19.6 63 17.2 86 86 SSW 12 19 29.92 1013 10 16.0934 0 0
6:55 am 06:55 Clear 67 19.3 63 17 87 87 SSW 12 19 29.92 1013 10 16.0934 0 0
7:15 am 07:15 Sunny 67 19.3 62 16.8 86 86 SSW 12 19 29.92 1013 10 16.0934 0 0
7:35 am 07:35 Sunny 67 19.4 62 16.7 84 84 SSW 10 17 29.93 1014 10 16.0934 0 0
7:55 am 07:55 Sunny 67 19.6 62 16.7 83 83 SSW 10 17 29.93 1014 10 16.0934 0 0
8:15 am 08:15 Sunny 68 20 62 16.7 81 81 SSW 10 17 29.93 1013 10 16.0934 0 0
8:35 am 08:35 Sunny 70 21 62 16.9 78 78 SSW 12 19 29.92 1013 10 16.0934 0 0
8:55 am 08:55 Sunny 71 21.7 62 16.7 73 73 SSW 10 17 29.91 1013 10 16.0934 0 0
9:15 am 09:15 Sunny 72 22.3 62 16.7 71 71 SSW 10 17 29.91 1013 10 16.0934 0 0
9:35 am 09:35 Sunny 74 23.1 62 16.8 68 68 SSW 7 11 29.9 1013 10 16.0934 0 0
9:55 am 09:55 Sunny 75 23.8 63 17.2 67 67 SSW 7 11 29.9 1012 10 16.0934 0 0
10:15 am 10:15 Sunny 76 24.2 63 17.1 65 65 SSW 7 11 29.88 1012 10 16.0934 0 0
10:35 am 10:35 Sunny 78 25.5 64 17.5 61 61 SSW 12 19 29.87 1012 10 16.0934 0 0
10:55 am 10:55 Sunny 79 26.1 64 17.6 60 60 SSW 14 22 29.87 1011 10 16.0934 0 0
11:15 am 11:15 Sunny 80 26.8 65 18.1 59 59 SSW 7 11 29.86 1011 10 16.0934 0 0
11:35 am 11:35 Sunny 81 27.2 65 18.1 58 58 SW 10 17 29.87 1011 10 16.0934 0 0
11:55 am 11:55 Sunny 82 28 65 18.5 56 56 SSW 12 19 29.86 1011 10 16.0934 0 0
12:15 pm 12:15 Sunny 84 28.8 65 18.6 54 54 SSW 10 17 29.86 1011 10 16.0934 0 0
12:35 pm 12:35 Sunny 85 29.2 65 18.4 52 52 SSW 9 15 29.85 1011 10 16.0934 0 0
12:55 pm 12:55 Sunny 85 29.6 65 18.1 50 50 SSW 9 15 29.85 1011 10 16.0934 0 0
1:15 pm 13:15 Sunny 87 30.5 65 18.3 48 48 SSW 10 17 29.83 1010 10 16.0934 0 0
1:35 pm 13:35 Sunny 87 30.7 66 18.8 49 49 SSW 8 13 29.83 1010 10 16.0934 0 0
1:55 pm 13:55 Sunny 89 31.4 67 19.4 49 49 SW 9 15 29.83 1010 10 16.0934 0 0
2:15 pm 14:15 Sunny 90 32.2 68 19.9 48 48 SW 7 11 29.82 1010 10 16.0934 0 0
2:35 pm 14:35 Sunny 90 32.4 67 19.4 46 46 SSW 9 15 29.82 1010 10 16.0934 0 0
2:55 pm 14:55 Sunny 91 33 67 19.6 45 45 SW 9 15 29.81 1010 10 16.0934 0 0
3:15 pm 15:15 Sunny 92 33.3 67 19.5 44 44 SW 6 9 29.81 1010 10 16.0934 0 0
3:35 pm 15:35 Sunny 93 33.7 69 20.8 47 47 SW 6 9 29.8 1009 10 16.0934 0 0
3:55 pm 15:55 Sunny 93 34 68 20.1 44 44 SW 6 9 29.79 1009 10 16.0934 0 0
4:15 pm 16:15 Sunny 94 34.3 68 19.9 43 43 SSW 8 13 29.78 1009 10 16.0934 0 0
4:35 pm 16:35 Sunny 95 34.8 67 19.2 40 40 SSW 9 15 29.77 1008 10 16.0934 0 0
4:55 pm 16:55 Sunny 95 34.9 66 19.1 39 39 SSW 7 11 29.77 1008 10 16.0934 0 0
5:15 pm 17:15 Sunny 95 35 68 20 41 41 SSW 5 7 29.78 1008 10 16.0934 0 0
5:35 pm 17:35 Sunny 94 34.6 67 19.6 41 41 SSW 5 7 29.77 1008 10 16.0934 0 0
5:55 pm 17:55 Sunny 94 34.3 69 20.7 45 45 SW 5 7 29.77 1008 10 16.0934 0 0
6:15 pm 18:15 Sunny 93 34 69 20.7 46 46 Calm 29.79 1009 10 16.0934 0 0
6:35 pm 18:35 Sunny 88 31 75 23.8 66 66 N 6 9 29.81 1009 10 16.0934 0 0
6:55 pm 18:55 Sunny 86 30 76 24.5 72 72 NNE 5 7 29.82 1010 10 16.0934 0 0
7:15 pm 19:15 Sunny 84 28.9 76 24.6 78 78 NNE 6 9 29.83 1010 10 16.0934 0 0
7:35 pm 19:35 Sunny 82 28 75 24.1 79 79 N 6 9 29.84 1011 10 16.0934 0 0
7:55 pm 19:55 Sunny 81 27.1 74 23.5 81 81 NNE 6 9 29.85 1011 10 16.0934 0 0
8:15 pm 20:15 Clear 79 26 74 23.1 84 84 N 7 11 29.87 1011 10 16.0934 0 0
8:35 pm 20:35 Clear 79 25.9 73 22.6 82 82 N 7 11 29.88 1012 7 11.26538 0 0
8:55 pm 20:55 Clear 76 24.7 73 22.8 89 89 N 7 11 29.89 1012 10 16.0934 0 0
9:15 pm 21:15 Clear 77 24.8 73 22.7 88 88 NNE 8 13 29.9 1012 10 16.0934 0 0
9:35 pm 21:35 Clear 76 24.5 73 22.7 90 90 NNE 7 11 29.91 1013 10 16.0934 0 0
9:55 pm 21:55 Clear 75 24 73 22.6 92 92 NNE 8 13 29.92 1013 10 16.0934 0 0
10:15 pm 22:15 Clear 75 23.9 72 22.3 91 91 NE 8 13 29.93 1013 10 16.0934 0 0
10:35 pm 22:35 Clear 74 23.1 72 22 94 94 NE 5 7 29.94 1014 10 16.0934 0 0
10:55 pm 22:55 Clear 73 22.5 72 22 97 97 NNE 3 6 29.96 1014 10 16.0934 0 0
11:15 pm 23:15 Clear 73 22.5 72 22 97 97 NNE 7 11 29.97 1015 10 16.0934 0 0
11:35 pm 23:35 Clear 73 22.6 72 22.1 97 97 NNE 8 13 29.97 1015 10 16.0934 0 0
11:55 pm 23:55 Clear 73 22.9 72 22.3 96 96 NNE 8 13 29.97 1015 10 16.0934 0 0

Powered by AerisWeather